Terug naar catalogus

DMSP 5D-2 F11 DEB

ActiefSSO
NORAD 28327·DEBRIS·🇺🇸 United States

Gelanceerd Nov 28, 1991 vanaf Vandenberg Space Force Base

Loading…

Volgende Passages (komende 24 uur)

TLE

VersSource: Space-Track

Epoch: Sep 13, 2026, 12:53 UTC

1 28327U 91082AQ  26256.53714293  .00003976  00000-0  10187-2 0  9991
2 28327  98.6719 351.5786 0021473  68.6973 302.7127 14.50780581689379

Volg DMSP 5D-2 F11 DEB in realtime met AllMySat

Download on the App Store